Regional Weather Roundup
Issued by NWS

Home | Current Version | Previous Version | Graphics & Text | Print | Product List | Glossary On
Versions: 1 2 3 4 5 6 7 8 9 10 11 12 13 14 15 16 17 18 19 20 21 22 23 24 25 26 27 28 29 30 31 32 33 34 35 36 37 38 39 40 41 42 43 44 45 46 47 48 49 50
000
ASUS43 KLMK 151110
RWRKY
KENTUCKY REGIONAL WEATHER ROUNDUP
NATIONAL WEATHER SERVICE LOUISVILLE KY
600 AM EST FRI DEC 15 2017

NOTE "FAIR" INDICATES FEW OR NO CLOUDS BELOW 12,000 FEET
WITH NO SIGNIFICANT WEATHER AND/OR OBSTRUCTIONS TO VISIBILITY.

KYZ001>023-026-027-061>063-070>075-151200-
WESTERN AND SOUTH CENTRAL KENTUCKY

CITY           SKY/WX    TMP DP  RH WIND       PRES   REMARKS
PADUCAH        CLOUDY    32  22  66 W6        30.12R WCI  26
HENDERSON      CLOUDY    30  23  75 W9        30.10S WCI  22
OWENSBORO      CLOUDY    31  22  69 W7        30.09S WCI  24
HOPKINSVILLE   CLOUDY    31  20  63 NW7       30.09R WCI  25
BOWLING GREEN  CLOUDY    32  21  64 W7        30.08S WCI  26
GLASGOW        CLOUDY    30  24  77 W3        30.06R
$$

KYZ024-025-028>034-038-045-046-053-151200-
NORTH CENTRAL KENTUCKY

CITY           SKY/WX    TMP DP  RH WIND       PRES   REMARKS
LOUISVILLE/SDF CLOUDY    29  19  66 W7        30.06S WCI  22
LOUISVILLE/LOU MOCLDY    24  19  81 CALM      30.06F
FORT KNOX      CLOUDY    28  22  78 CALM      30.03S
$$

KYZ035>037-039>044-047>052-055>060-089>105-151200-
NORTHEAST KENTUCKY

CITY           SKY/WX    TMP DP  RH WIND       PRES   REMARKS
LEXINGTON      CLOUDY    25  19  78 CALM      30.02F
COVINGTON      MOCLDY    21  18  88 SW3       30.02S
FRANKFORT      CLOUDY    25  18  74 CALM      30.02F
$$

KYZ054-064>069-076>088-106>120-151200-
SOUTHEAST KENTUCKY

CITY           SKY/WX    TMP DP  RH WIND       PRES   REMARKS
JACKSON        CLOUDY    29  21  72 CALM      29.97F
LONDON         CLOUDY    30  21  69 CALM      29.99F
SOMERSET       CLOUDY    30  19  64 N6        30.04S WCI  24
MIDDLESBORO    CLOUDY    28  25  91 CALM      30.00S
MONTICELLO     CLOUDY    30  22  72 NW6       30.04S WCI  24
$$





USA.gov is the U.S. government's official web portal to all federal, state and local government web resources and services.